Погода в Гидроторфе

Россия / Нижегородская область     56°28′20″N   43°32′23″E
темп.,
°C
ветер,
м/с
пор.,
м/с
влажн.,
%
обл.,
%
осадки,
мм/ч
давл.,
гПа
погр.,
м
7 марта, вс
вс700:00−15зюз239733 0.0 101220
03:00−16юз239719 0.0 101124
06:00−16ю349856 0.0 100873
09:00−10ююз6128978 0.0 1005451
12:00−6ю81393100 0.6 10011038
15:00−5ююз71293100 2.4 9961096
18:00−4ююз51195100 1.6 993765
21:00−4юз4996100 2.6 991519
8 марта, пн
пн800:00−8зсз3685100 0.4 991146
03:00−12з3384100 0.4 99338
06:00−12юз259669 0.3 994114
09:00−9з489281 0.5 995360
12:00−6з238598 0.0 996606
15:00−5ссз238599 0.3 998545
18:00−10ссз339066 0.1 100023
21:00−12зсз349652 0.1 100466
9 марта, вт
вт900:00−15ссз349782 0.0 100668
03:00−18ссз339877 0.1 100939
06:00−20ссз339890 0.0 101157
09:00−17с359592 0.1 1013248
12:00−15ссз459392 0.0 1014329
15:00−15ссз479190 0.1 1014378
18:00−18ссз489564 0.0 1016166
21:00−19ссз489879 0.0 1018149
10 марта, ср
ср1000:00−22с479897 0.0 1020137
03:00−26ссз479871 0.0 1021112
06:00−29ссз479720 0.0 1023116
09:00−26ссз479512 0.0 1025250
12:00−21ссз469333 0.0 1025333
15:00−18ссз478322 0.0 1025474
18:00−22ссз23910 0.0 102620
21:00−22зсз339911 0.0 102725
11 марта, чт
чт1100:00−24зсз33983 0.0 102727
03:00−24зсз33982 0.0 102828
06:00−25зсз339921 0.0 102936
09:00−20зсз359522 0.0 1030216
12:00−14зсз348767 0.0 1029388
15:00−10зсз248280 0.0 1028552
18:00−14зюз239396 0.0 102922
21:00−18юз239559 0.0 103020